Location: M.A.R.S.Observatory
(35.4031°N, 81.5481°W)
Time: 08:20:43
(UTC-05:00)

Daily predictions for brighter satellites

Satellite Brightness Start Highest point End
(mag) Time Altitude Azimuth Time Altitude Azimuth Time Altitude Azimuth
OAO 2 Rocket 3.7 18:35:34 10° WSW 18:40:23 52° SSE 18:45:10 10° E
Cosmos 2219 Rocket 3.3 18:38:32 10° NNW 18:43:59 51° WSW 18:49:24 10° S
COSMO-SKYMED 1 3.1 18:40:39 10° N 18:44:57 66° WNW 18:49:15 10° SSW
MOS 1 4.3 18:49:05 10° SSE 18:54:44 85° ENE 19:00:26 10° NNW
Cosmos 2227 Rocket 3.1 18:49:54 10° SW 18:55:23 52° WNW 19:00:54 10° N
FENGYUN 3A 3.8 18:50:40 10° S 18:56:03 80° WSW 19:01:29 10° NNW
SeaSat 1 3.9 18:53:05 10° E 18:56:23 18° NE 18:59:41 10° N
SJ-6B 4.1 18:55:30 10° ESE 18:58:12 19° ENE 19:00:57 10° NNE
USA 215 3.4 18:51:57 10° NE 18:58:23 58° SE 19:04:47 10° SSW
Envisat 4.3 18:54:55 10° ESE 18:58:30 20° ENE 19:02:06 10° NNE
Cosmos 2237 Rocket 2.4 18:54:05 10° NNW 18:59:43 79° WSW 19:05:19 10° SSE
Thor Agena Rocket 4.3 18:58:18 10° NE 19:02:43 29° E 19:07:04 10° SSE
SL-16 R/B 2.5 18:58:15 10° N 19:03:39 43° ENE 19:08:59 10° SE
Tiangong 2 1.4 19:00:36 10° NW 19:03:42 50° NNE 19:05:47 18° E
FREGAT/IRIS 3.2 19:02:18 10° SE 19:04:59 33° ENE 19:07:43 10° N
USA 32 4.5 19:00:36 10° SSE 19:05:24 39° E 19:10:14 10° NNE
Cosmos 44 Rocket 4.0 19:02:21 10° NNW 19:07:00 36° NE 19:11:23 12° ESE
H-2A R/B 2.7 19:03:50 10° SSE 19:07:41 65° ENE 19:11:34 10° N
CZ-4 R/B 4.4 19:05:43 10° SSW 19:08:50 21° W 19:11:56 10° NW
Cosmos 1674 Rocket 3.4 19:04:53 10° N 19:09:13 80° E 19:13:32 10° S
Cosmos 2297 Rocket 3.3 19:03:57 10° SW 19:09:21 46° WNW 19:14:48 10° N
HJ-1C 4.3 19:07:06 10° SE 19:10:05 28° ENE 19:13:04 10° NNE
Meteor 1-14 Rocket 4.3 19:04:28 10° S 19:10:12 83° E 19:16:07 10° N
MOS 1-B Rocket 4.5 19:04:12 10° S 19:10:47 67° WSW 19:16:37 10° NNW
Cosmos 2034 Rocket 4.4 19:06:43 10° N 19:12:42 41° ENE 19:18:39 10° SSE
IUS-18 SRM-1 4.0 19:11:55 10° SW 19:13:23 15° S 19:15:25 10° SE
Cosmos 1908 Rocket 3.5 19:09:32 10° S 19:13:58 70° E 19:18:26 10° NNE
Okean 1 4.0 19:11:19 10° NNE 19:14:54 32° ENE 19:18:28 10° SE
Okean 3 3.3 19:12:49 10° N 19:17:00 79° E 19:21:10 10° S
Meteor 1-20 Rocket 4.2 19:11:25 10° S 19:17:04 79° E 19:22:52 10° N
Cosmos 1633 2.5 19:14:08 10° S 19:17:41 83° W 19:21:16 10° N
ERS-2 2.0 19:17:05 10° SSE 19:20:43 64° ENE 19:24:23 10° N
Cosmos 921 Rocket 3.8 19:17:27 10° N 19:21:31 32° ENE 19:23:43 21° ESE
CZ-2D R/B 3.9 19:22:37 17° SE 19:25:05 34° ENE 19:28:38 10° N
ALOS 4.3 19:23:59 10° SSW 19:28:06 31° W 19:32:15 10° NW
Cosmos 1812 3.5 19:24:52 10° NNW 19:28:40 55° W 19:32:27 10° S
CENTAUR R/B 2.8 19:24:53 10° SW 19:30:44 68° NW 19:37:25 10° NNE
CZ-4C R/B 4.4 19:32:12 10° N 19:36:26 16° NE 19:37:37 16° NE
Meteor 1-18 Rocket 4.1 19:31:03 10° N 19:36:40 88° E 19:42:12 10° S
Cosmos 1602 3.8 19:33:36 10° S 19:37:25 54° E 19:41:14 10° NNE
Cosmos 44 3.4 19:32:59 10° NNW 19:38:06 90° WSW 19:43:25 10° SSE
Cosmos 2263 Rocket 3.9 19:36:00 10° SSE 19:37:15 15° SE 19:37:15 15° SE
Resurs 01 Rocket 3.0 19:42:38 23° NE 19:42:38 23° NE 19:44:52 10° NNE
Cosmos 1975 Rocket 3.1 19:39:50 10° N 19:44:11 53° E 19:46:31 25° SSE
Lacrosse 5 3.9 19:44:20 10° WNW 19:48:29 26° WSW 19:52:37 10° S
Cosmos 1452 Rocket 4.2 19:44:14 10° NNW 19:49:22 55° WSW 19:54:28 10° S
Meteor 1-11 Rocket 3.8 19:46:39 10° SSE 19:51:57 48° E 19:57:21 10° NNE
Meteor 1-19 Rocket 4.2 19:46:35 10° N 19:51:59 53° E 19:54:49 27° SE
Cosmos 1437 Rocket 3.0 19:48:14 10° SSW 19:52:14 71° W 19:56:20 10° N
Iridium 4 Rocket 3.8 19:49:13 10° N 19:53:56 57° W 19:58:14 10° SSW
Geosat 3.9 19:51:12 23° NE 19:54:22 67° ESE 19:59:21 10° SSW
Meteor 2-4 Rocket 4.2 19:50:00 10° N 19:54:53 38° ENE 19:54:53 38° ENE
Cosmos 2227 4.1 19:51:49 10° SSW 19:57:33 83° ESE 20:03:12 10° NNE
Gbstr 26 Del rocket 2.5 19:55:04 10° SW 19:58:45 88° W 19:58:45 88° W
COSMOS 2455 3.0 19:53:20 10° S 19:59:01 47° ESE 19:59:33 45° E
CRYOSAT 2 4.4 19:54:28 10° N 19:59:21 82° W 20:04:12 10° S
Tsikada Rocket 4.0 19:56:54 10° S 20:03:18 85° W 20:09:46 10° N
OAO 2 Rocket 3.4 20:20:06 10° W 20:24:26 69° WSW 20:24:26 69° WSW
Okean 2 Rocket 4.0 20:25:04 10° SSW 20:29:15 46° W 20:33:31 10° N
SeaSat 1 3.0 20:32:54 52° SW 20:33:29 55° WSW 20:38:20 10° NW
Envisat 4.1 20:32:24 10° S 20:37:11 42° W 20:41:59 10° NNW
USA 215 4.3 20:37:21 21° NNE 20:41:10 39° NW 20:47:06 10° W
SL-16 R/B 4.4 20:43:09 10° NW 20:47:23 22° W 20:51:36 10° SSW
USA 267 4.3 21:14:32 36° NNW 21:14:32 36° NNW 21:18:26 10° NW
CZ-4C R/B 4.0 21:18:56 10° NNW 21:22:51 35° NNW 21:22:51 35° NNW
CZ-3C R/B 4.0 21:21:53 10° SW 22:12:39 - ESE 21:25:19 32° SSW
